Wetterdaten: Sonntag, 13.04.2014
Datum Zeit Temperatur Luftfeuchte Luftdruck Regen Wind Richtung Richtung Sonnenschein ET UV Solar Taupunkt Windchill Windben
13.04.2014 00:00 10,9 C 57 % 1016,8 hPa 0,0 l/m 1,2 km/h (1 Bft) W-NW 283 0 min 0,000 mm 0,0 UV-I 0 W/m 2,7 C 10,9 C 4,8 km/h (1 Bft)
13.04.2014 00:05 10,8 C 57 % 1016,9 hPa 0,0 l/m 2,5 km/h (1 Bft) W 269 0 min 0,000 mm 0,0 UV-I 0 W/m 2,6 C 10,8 C 6,4 km/h (2 Bft)
13.04.2014 00:10 10,8 C 56 % 1016,9 hPa 0,0 l/m 2,4 km/h (1 Bft) W 269 0 min 0,000 mm 0,0 UV-I 0 W/m 2,4 C 10,8 C 8,0 km/h (2 Bft)
13.04.2014 00:15 10,8 C 57 % 1017,0 hPa 0,0 l/m 0,7 km/h (0 Bft) W 273 0 min 0,000 mm 0,0 UV-I 0 W/m 2,6 C 10,8 C 4,8 km/h (1 Bft)
13.04.2014 00:20 10,8 C 58 % 1016,9 hPa 0,0 l/m 1,4 km/h (1 Bft) W-NW 284 0 min 0,000 mm 0,0 UV-I 0 W/m 2,9 C 10,8 C 4,8 km/h (1 Bft)
13.04.2014 00:25 10,7 C 59 % 1016,9 hPa 0,0 l/m 0,1 km/h (0 Bft) W-NW 284 0 min 0,000 mm 0,0 UV-I 0 W/m 3,0 C 10,7 C 1,6 km/h (1 Bft)
13.04.2014 00:30 10,7 C 59 % 1017,1 hPa 0,0 l/m 0,0 km/h (0 Bft) W-NW 284 0 min 0,000 mm 0,0 UV-I 0 W/m 3,0 C 10,7 C 1,6 km/h (1 Bft)
13.04.2014 00:35 10,6 C 58 % 1016,9 hPa 0,0 l/m 0,1 km/h (0 Bft) W-NW 284 0 min 0,000 mm 0,0 UV-I 0 W/m 2,7 C 10,6 C 1,6 km/h (1 Bft)
13.04.2014 00:40 10,6 C 59 % 1016,8 hPa 0,0 l/m 0,0 km/h (0 Bft) W-NW 284 0 min 0,000 mm 0,0 UV-I 0 W/m 2,9 C 10,6 C 0,0 km/h (0 Bft)
13.04.2014 00:45 10,5 C 61 % 1016,8 hPa 0,0 l/m 0,0 km/h (0 Bft) W-NW 284 0 min 0,000 mm 0,0 UV-I 0 W/m 3,3 C 10,5 C 0,0 km/h (0 Bft)
13.04.2014 00:50 10,4 C 62 % 1016,8 hPa 0,0 l/m 0,0 km/h (0 Bft) W-NW 284 0 min 0,000 mm 0,0 UV-I 0 W/m 3,4 C 10,4 C 0,0 km/h (0 Bft)
13.04.2014 00:55 10,3 C 61 % 1016,8 hPa 0,0 l/m 0,0 km/h (0 Bft) W-NW 284 0 min 0,000 mm 0,0 UV-I 0 W/m 3,1 C 10,3 C 0,0 km/h (0 Bft)
13.04.2014 01:00 10,2 C 61 % 1016,7 hPa 0,0 l/m 0,0 km/h (0 Bft) W-NW 284 0 min 0,000 mm 0,0 UV-I 0 W/m 3,0 C 10,2 C 0,0 km/h (0 Bft)
13.04.2014 01:05 10,2 C 61 % 1016,7 hPa 0,0 l/m 0,0 km/h (0 Bft) W-NW 284 0 min 0,025 mm 0,0 UV-I 0 W/m 3,0 C 10,2 C 0,0 km/h (0 Bft)
13.04.2014 01:10 10,1 C 62 % 1016,7 hPa 0,0 l/m 0,0 km/h (0 Bft) W-NW 284 0 min 0,000 mm 0,0 UV-I 0 W/m 3,2 C 10,1 C 0,0 km/h (0 Bft)
13.04.2014 01:15 10,1 C 63 % 1016,5 hPa 0,0 l/m 0,0 km/h (0 Bft) W-NW 284 0 min 0,000 mm 0,0 UV-I 0 W/m 3,4 C 10,1 C 0,0 km/h (0 Bft)
13.04.2014 01:20 10,0 C 65 % 1016,5 hPa 0,0 l/m 0,0 km/h (0 Bft) W-NW 284 0 min 0,000 mm 0,0 UV-I 0 W/m 3,7 C 10,0 C 0,0 km/h (0 Bft)
13.04.2014 01:25 9,8 C 64 % 1016,5 hPa 0,0 l/m 0,0 km/h (0 Bft) W-NW 284 0 min 0,000 mm 0,0 UV-I 0 W/m 3,3 C 9,8 C 1,6 km/h (1 Bft)
13.04.2014 01:30 9,8 C 64 % 1016,5 hPa 0,0 l/m 0,0 km/h (0 Bft) W-NW 284 0 min 0,000 mm 0,0 UV-I 0 W/m 3,3 C 9,8 C 1,6 km/h (1 Bft)
13.04.2014 01:35 9,7 C 64 % 1016,6 hPa 0,0 l/m 0,0 km/h (0 Bft) W-NW 284 0 min 0,000 mm 0,0 UV-I 0 W/m 3,2 C 9,7 C 0,0 km/h (0 Bft)
13.04.2014 01:40 9,7 C 67 % 1016,6 hPa 0,0 l/m 0,0 km/h (0 Bft) W-NW 284 0 min 0,000 mm 0,0 UV-I 0 W/m 3,9 C 9,7 C 0,0 km/h (0 Bft)
13.04.2014 01:45 9,6 C 67 % 1016,4 hPa 0,0 l/m 0,0 km/h (0 Bft) W-NW 284 0 min 0,000 mm 0,0 UV-I 0 W/m 3,8 C 9,6 C 0,0 km/h (0 Bft)
13.04.2014 01:50 9,6 C 68 % 1016,5 hPa 0,0 l/m 0,0 km/h (0 Bft) W-NW 284 0 min 0,000 mm 0,0 UV-I 0 W/m 4,0 C 9,6 C 0,0 km/h (0 Bft)
13.04.2014 01:55 9,5 C 68 % 1016,5 hPa 0,0 l/m 0,0 km/h (0 Bft) W-NW 284 0 min 0,000 mm 0,0 UV-I 0 W/m 3,9 C 9,5 C 1,6 km/h (1 Bft)
13.04.2014 02:00 9,4 C 67 % 1016,5 hPa 0,0 l/m 0,0 km/h (0 Bft) W-NW 284 0 min 0,026 mm 0,0 UV-I 0 W/m 3,6 C 9,4 C 0,0 km/h (0 Bft)
13.04.2014 02:05 9,4 C 67 % 1016,4 hPa 0,0 l/m 0,0 km/h (0 Bft) W-NW 284 0 min 0,000 mm 0,0 UV-I 0 W/m 3,6 C 9,4 C 0,0 km/h (0 Bft)
13.04.2014 02:10 9,3 C 69 % 1016,4 hPa 0,0 l/m 0,0 km/h (0 Bft) W-NW 284 0 min 0,000 mm 0,0 UV-I 0 W/m 3,9 C 9,3 C 0,0 km/h (0 Bft)
13.04.2014 02:15 9,3 C 69 % 1016,5 hPa 0,0 l/m 0,0 km/h (0 Bft) W-NW 284 0 min 0,000 mm 0,0 UV-I 0 W/m 3,9 C 9,3 C 0,0 km/h (0 Bft)
13.04.2014 02:20 9,2 C 69 % 1016,5 hPa 0,0 l/m 0,0 km/h (0 Bft) W-NW 284 0 min 0,000 mm 0,0 UV-I 0 W/m 3,8 C 9,2 C 0,0 km/h (0 Bft)
13.04.2014 02:25 9,2 C 69 % 1016,5 hPa 0,0 l/m 0,0 km/h (0 Bft) W-NW 284 0 min 0,000 mm 0,0 UV-I 0 W/m 3,8 C 9,2 C 0,0 km/h (0 Bft)
13.04.2014 02:30 9,2 C 69 % 1016,5 hPa 0,0 l/m 0,0 km/h (0 Bft) W-NW 284 0 min 0,000 mm 0,0 UV-I 0 W/m 3,8 C 9,2 C 0,0 km/h (0 Bft)
13.04.2014 02:35 9,1 C 69 % 1016,5 hPa 0,0 l/m 0,0 km/h (0 Bft) W-NW 284 0 min 0,000 mm 0,0 UV-I 0 W/m 3,7 C 9,1 C 0,0 km/h (0 Bft)
13.04.2014 02:40 9,1 C 70 % 1016,5 hPa 0,0 l/m 0,0 km/h (0 Bft) W-NW 284 0 min 0,000 mm 0,0 UV-I 0 W/m 3,9 C 9,1 C 0,0 km/h (0 Bft)
13.04.2014 02:45 9,2 C 71 % 1016,6 hPa 0,0 l/m 0,0 km/h (0 Bft) W-NW 284 0 min 0,000 mm 0,0 UV-I 0 W/m 4,2 C 9,2 C 0,0 km/h (0 Bft)
13.04.2014 02:50 9,1 C 72 % 1016,6 hPa 0,0 l/m 0,0 km/h (0 Bft) W-NW 284 0 min 0,000 mm 0,0 UV-I 0 W/m 4,3 C 9,1 C 0,0 km/h (0 Bft)
13.04.2014 02:55 9,1 C 71 % 1016,6 hPa 0,0 l/m 0,0 km/h (0 Bft) W-NW 284 0 min 0,000 mm 0,0 UV-I 0 W/m 4,1 C 9,1 C 0,0 km/h (0 Bft)
13.04.2014 03:00 9,1 C 70 % 1016,5 hPa 0,0 l/m 0,0 km/h (0 Bft) W-NW 284 0 min 0,025 mm 0,0 UV-I 0 W/m 3,9 C 9,1 C 0,0 km/h (0 Bft)
13.04.2014 03:05 8,9 C 71 % 1016,5 hPa 0,0 l/m 0,0 km/h (0 Bft) W-NW 284 0 min 0,000 mm 0,0 UV-I 0 W/m 3,9 C 8,9 C 0,0 km/h (0 Bft)
13.04.2014 03:10 8,9 C 71 % 1016,6 hPa 0,0 l/m 0,0 km/h (0 Bft) W-NW 284 0 min 0,000 mm 0,0 UV-I 0 W/m 3,9 C 8,9 C 0,0 km/h (0 Bft)
13.04.2014 03:15 8,8 C 71 % 1016,5 hPa 0,0 l/m 0,0 km/h (0 Bft) W-NW 284 0 min 0,000 mm 0,0 UV-I 0 W/m 3,8 C 8,8 C 0,0 km/h (0 Bft)
13.04.2014 03:20 8,8 C 71 % 1016,5 hPa 0,0 l/m 0,0 km/h (0 Bft) W-NW 284 0 min 0,000 mm 0,0 UV-I 0 W/m 3,8 C 8,8 C 0,0 km/h (0 Bft)
13.04.2014 03:25 8,7 C 71 % 1016,6 hPa 0,0 l/m 0,0 km/h (0 Bft) W-NW 284 0 min 0,000 mm 0,0 UV-I 0 W/m 3,7 C 8,7 C 0,0 km/h (0 Bft)
13.04.2014 03:30 8,6 C 70 % 1016,5 hPa 0,0 l/m 0,0 km/h (0 Bft) W-NW 284 0 min 0,000 mm 0,0 UV-I 0 W/m 3,4 C 8,6 C 0,0 km/h (0 Bft)
13.04.2014 03:35 8,5 C 70 % 1016,5 hPa 0,0 l/m 0,0 km/h (0 Bft) W-NW 284 0 min 0,000 mm 0,0 UV-I 0 W/m 3,3 C 8,5 C 0,0 km/h (0 Bft)
13.04.2014 03:40 8,3 C 70 % 1016,6 hPa 0,0 l/m 0,0 km/h (0 Bft) W-NW 284 0 min 0,000 mm 0,0 UV-I 0 W/m 3,2 C 8,3 C 0,0 km/h (0 Bft)
13.04.2014 03:45 8,2 C 70 % 1016,6 hPa 0,0 l/m 0,0 km/h (0 Bft) W-NW 284 0 min 0,000 mm 0,0 UV-I 0 W/m 3,1 C 8,2 C 0,0 km/h (0 Bft)
13.04.2014 03:50 7,9 C 71 % 1016,6 hPa 0,0 l/m 0,0 km/h (0 Bft) W-NW 284 0 min 0,000 mm 0,0 UV-I 0 W/m 3,0 C 7,9 C 0,0 km/h (0 Bft)
13.04.2014 03:55 7,7 C 71 % 1016,5 hPa 0,0 l/m 0,0 km/h (0 Bft) W-NW 284 0 min 0,000 mm 0,0 UV-I 0 W/m 2,8 C 7,7 C 0,0 km/h (0 Bft)
13.04.2014 04:00 7,6 C 72 % 1016,6 hPa 0,0 l/m 0,0 km/h (0 Bft) W-NW 284 0 min 0,026 mm 0,0 UV-I 0 W/m 2,9 C 7,6 C 0,0 km/h (0 Bft)
13.04.2014 04:05 7,3 C 72 % 1016,5 hPa 0,0 l/m 0,0 km/h (0 Bft) W-NW 284 0 min 0,000 mm 0,0 UV-I 0 W/m 2,6 C 7,3 C 0,0 km/h (0 Bft)
13.04.2014 04:10 7,2 C 73 % 1016,6 hPa 0,0 l/m 0,0 km/h (0 Bft) W-NW 284 0 min 0,000 mm 0,0 UV-I 0 W/m 2,7 C 7,2 C 0,0 km/h (0 Bft)
13.04.2014 04:15 7,1 C 73 % 1016,6 hPa 0,0 l/m 0,0 km/h (0 Bft) W-NW 284 0 min 0,000 mm 0,0 UV-I 0 W/m 2,6 C 7,1 C 0,0 km/h (0 Bft)
13.04.2014 04:20 6,9 C 74 % 1016,5 hPa 0,0 l/m 0,0 km/h (0 Bft) W-NW 284 0 min 0,000 mm 0,0 UV-I 0 W/m 2,6 C 6,9 C 0,0 km/h (0 Bft)
13.04.2014 04:25 6,8 C 75 % 1016,5 hPa 0,0 l/m 0,0 km/h (0 Bft) W-NW 284 0 min 0,000 mm 0,0 UV-I 0 W/m 2,7 C 6,8 C 0,0 km/h (0 Bft)
13.04.2014 04:30 6,7 C 75 % 1016,5 hPa 0,0 l/m 0,0 km/h (0 Bft) W-NW 284 0 min 0,000 mm 0,0 UV-I 0 W/m 2,6 C 6,7 C 0,0 km/h (0 Bft)
13.04.2014 04:35 6,6 C 75 % 1016,5 hPa 0,0 l/m 0,0 km/h (0 Bft) W-NW 284 0 min 0,000 mm 0,0 UV-I 0 W/m 2,5 C 6,6 C 0,0 km/h (0 Bft)
13.04.2014 04:40 6,5 C 76 % 1016,5 hPa 0,0 l/m 0,0 km/h (0 Bft) W-NW 284 0 min 0,000 mm 0,0 UV-I 0 W/m 2,6 C 6,5 C 0,0 km/h (0 Bft)
13.04.2014 04:45 6,3 C 77 % 1016,5 hPa 0,0 l/m 0,0 km/h (0 Bft) W-NW 284 0 min 0,000 mm 0,0 UV-I 0 W/m 2,6 C 6,3 C 0,0 km/h (0 Bft)
13.04.2014 04:50 6,2 C 77 % 1016,6 hPa 0,0 l/m 0,0 km/h (0 Bft) W-NW 284 0 min 0,000 mm 0,0 UV-I 0 W/m 2,5 C 6,2 C 0,0 km/h (0 Bft)
13.04.2014 04:55 6,1 C 77 % 1016,5 hPa 0,0 l/m 0,0 km/h (0 Bft) W-NW 284 0 min 0,000 mm 0,0 UV-I 0 W/m 2,4 C 6,1 C 0,0 km/h (0 Bft)
13.04.2014 05:00 5,9 C 77 % 1016,5 hPa 0,0 l/m 0,0 km/h (0 Bft) W-NW 284 0 min 0,025 mm 0,0 UV-I 0 W/m 2,2 C 5,9 C 0,0 km/h (0 Bft)
13.04.2014 05:05 5,8 C 78 % 1016,6 hPa 0,0 l/m 0,0 km/h (0 Bft) W-NW 284 0 min 0,000 mm 0,0 UV-I 0 W/m 2,3 C 5,8 C 0,0 km/h (0 Bft)
13.04.2014 05:10 5,7 C 78 % 1016,6 hPa 0,0 l/m 0,0 km/h (0 Bft) W-NW 284 0 min 0,000 mm 0,0 UV-I 0 W/m 2,2 C 5,7 C 0,0 km/h (0 Bft)
13.04.2014 05:15 5,6 C 79 % 1016,6 hPa 0,0 l/m 0,0 km/h (0 Bft) W-NW 284 0 min 0,000 mm 0,0 UV-I 0 W/m 2,3 C 5,6 C 0,0 km/h (0 Bft)
13.04.2014 05:20 5,4 C 79 % 1016,6 hPa 0,0 l/m 0,0 km/h (0 Bft) W-NW 284 0 min 0,000 mm 0,0 UV-I 0 W/m 2,1 C 5,4 C 0,0 km/h (0 Bft)
13.04.2014 05:25 5,3 C 80 % 1016,6 hPa 0,0 l/m 0,0 km/h (0 Bft) W-NW 284 0 min 0,000 mm 0,0 UV-I 0 W/m 2,1 C 5,3 C 0,0 km/h (0 Bft)
13.04.2014 05:30 5,2 C 80 % 1016,7 hPa 0,0 l/m 0,0 km/h (0 Bft) W-NW 284 0 min 0,000 mm 0,0 UV-I 0 W/m 2,0 C 5,2 C 0,0 km/h (0 Bft)
13.04.2014 05:35 5,1 C 81 % 1016,6 hPa 0,0 l/m 0,0 km/h (0 Bft) W-NW 284 0 min 0,000 mm 0,0 UV-I 0 W/m 2,1 C 5,1 C 0,0 km/h (0 Bft)
13.04.2014 05:40 4,9 C 81 % 1016,7 hPa 0,0 l/m 0,0 km/h (0 Bft) W-NW 284 0 min 0,000 mm 0,0 UV-I 0 W/m 1,9 C 4,9 C 0,0 km/h (0 Bft)
13.04.2014 05:45 4,8 C 81 % 1016,7 hPa 0,0 l/m 0,0 km/h (0 Bft) W-NW 284 0 min 0,000 mm 0,0 UV-I 0 W/m 1,8 C 4,8 C 0,0 km/h (0 Bft)
13.04.2014 05:50 4,7 C 82 % 1016,7 hPa 0,0 l/m 0,0 km/h (0 Bft) W-NW 284 0 min 0,000 mm 0,0 UV-I 0 W/m 1,9 C 4,7 C 0,0 km/h (0 Bft)
13.04.2014 05:55 4,6 C 82 % 1016,7 hPa 0,0 l/m 0,0 km/h (0 Bft) W-NW 284 0 min 0,000 mm 0,0 UV-I 0 W/m 1,8 C 4,6 C 0,0 km/h (0 Bft)
13.04.2014 06:00 4,5 C 82 % 1016,7 hPa 0,0 l/m 0,0 km/h (0 Bft) W-NW 284 0 min 0,000 mm 0,0 UV-I 0 W/m 1,7 C 4,5 C 0,0 km/h (0 Bft)
13.04.2014 06:05 4,3 C 82 % 1016,7 hPa 0,0 l/m 0,0 km/h (0 Bft) W-NW 284 0 min 0,000 mm 0,0 UV-I 0 W/m 1,5 C 4,3 C 0,0 km/h (0 Bft)
13.04.2014 06:10 4,2 C 83 % 1016,7 hPa 0,0 l/m 0,0 km/h (0 Bft) W-NW 284 0 min 0,000 mm 0,0 UV-I 0 W/m 1,6 C 4,2 C 0,0 km/h (0 Bft)
13.04.2014 06:15 4,1 C 83 % 1016,8 hPa 0,0 l/m 0,0 km/h (0 Bft) W-NW 284 0 min 0,000 mm 0,0 UV-I 0 W/m 1,5 C 4,1 C 0,0 km/h (0 Bft)
13.04.2014 06:20 4,0 C 84 % 1017,0 hPa 0,0 l/m 0,0 km/h (0 Bft) W-NW 284 0 min 0,000 mm 0,0 UV-I 0 W/m 1,5 C 4,0 C 0,0 km/h (0 Bft)
13.04.2014 06:25 3,8 C 84 % 1017,0 hPa 0,0 l/m 0,0 km/h (0 Bft) W-NW 284 0 min 0,000 mm 0,0 UV-I 0 W/m 1,4 C 3,8 C 0,0 km/h (0 Bft)
13.04.2014 06:30 3,7 C 84 % 1017,0 hPa 0,0 l/m 0,0 km/h (0 Bft) W-NW 284 0 min 0,000 mm 0,0 UV-I 0 W/m 1,3 C 3,7 C 0,0 km/h (0 Bft)
13.04.2014 06:35 3,6 C 84 % 1017,0 hPa 0,0 l/m 0,0 km/h (0 Bft) W-NW 284 0 min 0,000 mm 0,0 UV-I 0 W/m 1,2 C 3,6 C 0,0 km/h (0 Bft)
13.04.2014 06:40 3,6 C 84 % 1017,1 hPa 0,0 l/m 0,0 km/h (0 Bft) W-NW 284 0 min 0,000 mm 0,0 UV-I 5 W/m 1,2 C 3,6 C 0,0 km/h (0 Bft)
13.04.2014 06:45 3,5 C 84 % 1017,1 hPa 0,0 l/m 0,0 km/h (0 Bft) W-NW 284 0 min 0,000 mm 0,0 UV-I 7 W/m 1,1 C 3,5 C 0,0 km/h (0 Bft)
13.04.2014 06:50 3,4 C 85 % 1017,2 hPa 0,0 l/m 0,0 km/h (0 Bft) W-NW 284 0 min 0,000 mm 0,0 UV-I 11 W/m 1,1 C 3,4 C 0,0 km/h (0 Bft)
13.04.2014 06:55 3,4 C 85 % 1017,3 hPa 0,0 l/m 0,0 km/h (0 Bft) W-NW 284 0 min 0,000 mm 0,0 UV-I 11 W/m 1,1 C 3,4 C 0,0 km/h (0 Bft)
13.04.2014 07:00 3,3 C 85 % 1017,3 hPa 0,0 l/m 0,0 km/h (0 Bft) W-NW 284 0 min 0,000 mm 0,0 UV-I 12 W/m 1,0 C 3,3 C 0,0 km/h (0 Bft)
13.04.2014 07:05 3,3 C 86 % 1017,4 hPa 0,0 l/m 0,0 km/h (0 Bft) W-NW 284 0 min 0,000 mm 0,0 UV-I 18 W/m 1,2 C 3,3 C 0,0 km/h (0 Bft)
13.04.2014 07:10 3,2 C 86 % 1017,5 hPa 0,0 l/m 0,0 km/h (0 Bft) W-NW 284 0 min 0,000 mm 0,0 UV-I 25 W/m 1,1 C 3,2 C 0,0 km/h (0 Bft)
13.04.2014 07:15 3,3 C 87 % 1017,5 hPa 0,0 l/m 0,0 km/h (0 Bft) W-NW 284 0 min 0,000 mm 0,0 UV-I 30 W/m 1,3 C 3,3 C 0,0 km/h (0 Bft)
13.04.2014 07:20 3,3 C 87 % 1017,6 hPa 0,0 l/m 0,0 km/h (0 Bft) W-NW 284 0 min 0,000 mm 0,0 UV-I 37 W/m 1,3 C 3,3 C 0,0 km/h (0 Bft)
13.04.2014 07:25 3,4 C 88 % 1017,6 hPa 0,0 l/m 0,0 km/h (0 Bft) W-NW 284 0 min 0,000 mm 0,0 UV-I 46 W/m 1,6 C 3,4 C 0,0 km/h (0 Bft)
13.04.2014 07:30 3,6 C 88 % 1017,7 hPa 0,0 l/m 0,0 km/h (0 Bft) W-NW 284 0 min 0,000 mm 0,0 UV-I 51 W/m 1,8 C 3,6 C 0,0 km/h (0 Bft)
13.04.2014 07:35 3,8 C 88 % 1017,8 hPa 0,0 l/m 0,1 km/h (0 Bft) W-NW 284 0 min 0,000 mm 0,0 UV-I 67 W/m 2,0 C 3,8 C 1,6 km/h (1 Bft)
13.04.2014 07:40 4,1 C 88 % 1017,9 hPa 0,0 l/m 0,0 km/h (0 Bft) W-NW 284 0 min 0,000 mm 0,0 UV-I 81 W/m 2,3 C 4,1 C 0,0 km/h (0 Bft)
13.04.2014 07:45 4,3 C 88 % 1017,9 hPa 0,0 l/m 0,0 km/h (0 Bft) W-NW 284 0 min 0,000 mm 0,0 UV-I 90 W/m 2,5 C 4,3 C 1,6 km/h (1 Bft)
13.04.2014 07:50 4,7 C 87 % 1017,9 hPa 0,0 l/m 0,1 km/h (0 Bft) W-NW 284 5 min 0,000 mm 0,0 UV-I 104 W/m 2,7 C 4,7 C 3,2 km/h (1 Bft)
13.04.2014 07:55 4,9 C 86 % 1018,0 hPa 0,0 l/m 0,6 km/h (0 Bft) W-NW 284 5 min 0,000 mm 0,0 UV-I 114 W/m 2,8 C 4,9 C 3,2 km/h (1 Bft)
13.04.2014 08:00 5,2 C 86 % 1018,1 hPa 0,0 l/m 0,7 km/h (0 Bft) W-NW 284 5 min 0,025 mm 0,0 UV-I 127 W/m 3,1 C 5,2 C 4,8 km/h (1 Bft)
13.04.2014 08:05 5,3 C 85 % 1018,2 hPa 0,0 l/m 0,4 km/h (0 Bft) W-NW 284 5 min 0,000 mm 0,0 UV-I 132 W/m 3,0 C 5,3 C 4,8 km/h (1 Bft)
13.04.2014 08:10 5,5 C 85 % 1018,2 hPa 0,0 l/m 2,2 km/h (1 Bft) W 277 5 min 0,000 mm 0,0 UV-I 137 W/m 3,2 C 5,5 C 6,4 km/h (2 Bft)
13.04.2014 08:15 5,7 C 85 % 1018,4 hPa 0,0 l/m 3,7 km/h (1 Bft) W 270 5 min 0,000 mm 0,0 UV-I 176 W/m 3,4 C 5,7 C 8,0 km/h (2 Bft)
13.04.2014 08:20 6,1 C 85 % 1018,3 hPa 0,0 l/m 4,3 km/h (1 Bft) W-SW 249 5 min 0,000 mm 0,0 UV-I 207 W/m 3,8 C 6,1 C 9,7 km/h (2 Bft)
13.04.2014 08:25 6,3 C 84 % 1018,4 hPa 0,0 l/m 4,3 km/h (1 Bft) W-NW 292 5 min 0,000 mm 0,5 UV-I 190 W/m 3,8 C 6,3 C 8,0 km/h (2 Bft)
13.04.2014 08:30 6,6 C 85 % 1018,4 hPa 0,0 l/m 5,8 km/h (2 Bft) W 277 5 min 0,000 mm 0,5 UV-I 204 W/m 4,3 C 6,6 C 12,9 km/h (3 Bft)
13.04.2014 08:35 7,0 C 84 % 1018,5 hPa 0,0 l/m 4,4 km/h (1 Bft) W 275 5 min 0,000 mm 0,6 UV-I 225 W/m 4,5 C 7,0 C 6,4 km/h (2 Bft)
13.04.2014 08:40 7,4 C 83 % 1018,5 hPa 0,0 l/m 6,2 km/h (2 Bft) W-SW 250 5 min 0,000 mm 0,6 UV-I 232 W/m 4,7 C 7,4 C 11,3 km/h (2 Bft)
13.04.2014 08:45 7,8 C 83 % 1018,6 hPa 0,0 l/m 5,7 km/h (1 Bft) W-NW 300 5 min 0,000 mm 0,7 UV-I 271 W/m 5,1 C 7,8 C 9,7 km/h (2 Bft)
13.04.2014 08:50 8,1 C 82 % 1018,6 hPa 0,0 l/m 6,5 km/h (2 Bft) NW 312 0 min 0,000 mm 0,7 UV-I 130 W/m 5,2 C 8,0 C 12,9 km/h (3 Bft)
13.04.2014 08:55 8,3 C 80 % 1018,7 hPa 0,0 l/m 4,9 km/h (1 Bft) NW 304 5 min 0,000 mm 0,8 UV-I 285 W/m 5,1 C 8,3 C 14,5 km/h (3 Bft)
13.04.2014 09:00 8,5 C 80 % 1018,7 hPa 0,0 l/m 5,0 km/h (1 Bft) W 262 5 min 0,102 mm 0,8 UV-I 278 W/m 5,3 C 8,5 C 12,9 km/h (3 Bft)
13.04.2014 09:05 8,6 C 79 % 1018,7 hPa 0,0 l/m 7,1 km/h (2 Bft) W 281 5 min 0,000 mm 0,9 UV-I 299 W/m 5,2 C 8,1 C 16,1 km/h (3 Bft)
13.04.2014 09:10 8,8 C 79 % 1018,7 hPa 0,0 l/m 3,2 km/h (1 Bft) SW 234 5 min 0,000 mm 0,9 UV-I 297 W/m 5,4 C 8,8 C 8,0 km/h (2 Bft)
13.04.2014 09:15 9,0 C 77 % 1018,8 hPa 0,0 l/m 6,2 km/h (2 Bft) W 271 0 min 0,000 mm 0,8 UV-I 176 W/m 5,2 C 9,0 C 12,9 km/h (3 Bft)
13.04.2014 09:20 9,1 C 77 % 1018,7 hPa 0,0 l/m 5,1 km/h (1 Bft) SW 234 0 min 0,000 mm 0,9 UV-I 183 W/m 5,3 C 9,1 C 11,3 km/h (2 Bft)
13.04.2014 09:25 9,2 C 76 % 1018,7 hPa 0,0 l/m 8,4 km/h (2 Bft) W-NW 291 5 min 0,000 mm 1,1 UV-I 417 W/m 5,2 C 7,7 C 19,3 km/h (3 Bft)
13.04.2014 09:30 9,5 C 76 % 1018,8 hPa 0,0 l/m 6,0 km/h (2 Bft) W-NW 292 5 min 0,000 mm 1,1 UV-I 420 W/m 5,5 C 9,5 C 12,9 km/h (3 Bft)
13.04.2014 09:35 10,2 C 75 % 1018,8 hPa 0,0 l/m 3,0 km/h (1 Bft) W 267 0 min 0,000 mm 1,0 UV-I 162 W/m 6,0 C 10,2 C 8,0 km/h (2 Bft)
13.04.2014 09:40 10,0 C 74 % 1018,9 hPa 0,0 l/m 6,9 km/h (2 Bft) W 273 5 min 0,000 mm 1,3 UV-I 443 W/m 5,6 C 9,6 C 14,5 km/h (3 Bft)
13.04.2014 09:45 9,9 C 75 % 1018,9 hPa 0,0 l/m 5,7 km/h (1 Bft) SW 236 5 min 0,000 mm 1,3 UV-I 483 W/m 5,7 C 9,9 C 12,9 km/h (3 Bft)
13.04.2014 09:50 10,3 C 74 % 1018,8 hPa 0,0 l/m 7,1 km/h (2 Bft) S-SW 207 0 min 0,000 mm 1,2 UV-I 241 W/m 5,9 C 9,8 C 11,3 km/h (2 Bft)
13.04.2014 09:55 10,5 C 73 % 1018,9 hPa 0,0 l/m 3,9 km/h (1 Bft) SW 215 5 min 0,000 mm 1,0 UV-I 497 W/m 5,9 C 10,5 C 12,9 km/h (3 Bft)
13.04.2014 10:00 10,4 C 72 % 1018,9 hPa 0,0 l/m 6,2 km/h (2 Bft) S-SW 203 0 min 0,152 mm 1,0 UV-I 218 W/m 5,6 C 10,4 C 12,9 km/h (3 Bft)
13.04.2014 10:05 10,5 C 74 % 1018,9 hPa 0,0 l/m 5,1 km/h (1 Bft) NW 306 0 min 0,000 mm 1,4 UV-I 255 W/m 6,1 C 10,5 C 12,9 km/h (3 Bft)
13.04.2014 10:10 10,6 C 72 % 1019,0 hPa 0,0 l/m 5,9 km/h (2 Bft) W 277 0 min 0,000 mm 1,7 UV-I 190 W/m 5,8 C 10,6 C 14,5 km/h (3 Bft)
13.04.2014 10:15 10,4 C 72 % 1019,0 hPa 0,0 l/m 7,6 km/h (2 Bft) S-SW 205 0 min 0,000 mm 1,6 UV-I 258 W/m 5,6 C 9,5 C 14,5 km/h (3 Bft)
13.04.2014 10:20 10,5 C 73 % 1019,1 hPa 0,0 l/m 7,2 km/h (2 Bft) W 272 0 min 0,000 mm 1,7 UV-I 271 W/m 5,9 C 9,9 C 12,9 km/h (3 Bft)
13.04.2014 10:25 10,9 C 71 % 1019,1 hPa 0,0 l/m 6,3 km/h (2 Bft) W-SW 255 0 min 0,000 mm 1,5 UV-I 265 W/m 5,9 C 10,9 C 12,9 km/h (3 Bft)
13.04.2014 10:30 10,9 C 71 % 1019,1 hPa 0,0 l/m 7,3 km/h (2 Bft) SW 232 0 min 0,000 mm 1,3 UV-I 288 W/m 5,9 C 10,3 C 14,5 km/h (3 Bft)
13.04.2014 10:35 11,1 C 71 % 1019,1 hPa 0,0 l/m 7,9 km/h (2 Bft) S-SW 208 0 min 0,000 mm 1,6 UV-I 227 W/m 6,0 C 10,1 C 14,5 km/h (3 Bft)
13.04.2014 10:40 11,4 C 70 % 1019,1 hPa 0,0 l/m 4,9 km/h (1 Bft) NW 315 5 min 0,000 mm 2,0 UV-I 670 W/m 6,1 C 11,4 C 11,3 km/h (2 Bft)
13.04.2014 10:45 11,9 C 68 % 1019,0 hPa 0,0 l/m 3,0 km/h (1 Bft) W-SW 237 5 min 0,000 mm 1,9 UV-I 359 W/m 6,2 C 11,9 C 9,7 km/h (2 Bft)
13.04.2014 10:50 12,2 C 66 % 1019,1 hPa 0,0 l/m 6,1 km/h (2 Bft) S-SW 202 0 min 0,000 mm 1,6 UV-I 267 W/m 6,0 C 12,2 C 16,1 km/h (3 Bft)
13.04.2014 10:55 11,9 C 67 % 1019,0 hPa 0,0 l/m 6,5 km/h (2 Bft) NW 314 0 min 0,000 mm 1,6 UV-I 230 W/m 6,0 C 11,9 C 11,3 km/h (2 Bft)
13.04.2014 11:00 11,7 C 67 % 1019,0 hPa 0,0 l/m 7,2 km/h (2 Bft) W-SW 252 0 min 0,178 mm 2,3 UV-I 279 W/m 5,8 C 11,2 C 14,5 km/h (3 Bft)
13.04.2014 11:05 11,7 C 68 % 1019,0 hPa 0,0 l/m 10,0 km/h (2 Bft) S-SW 201 5 min 0,000 mm 2,2 UV-I 438 W/m 6,0 C 9,5 C 16,1 km/h (3 Bft)
13.04.2014 11:10 12,1 C 67 % 1019,1 hPa 0,0 l/m 8,7 km/h (2 Bft) W-NW 292 5 min 0,000 mm 2,9 UV-I 679 W/m 6,2 C 10,6 C 17,7 km/h (3 Bft)
13.04.2014 11:15 12,3 C 65 % 1019,1 hPa 0,0 l/m 9,2 km/h (2 Bft) NW 325 5 min 0,000 mm 2,9 UV-I 578 W/m 5,9 C 10,6 C 19,3 km/h (3 Bft)
13.04.2014 11:20 12,8 C 63 % 1019,0 hPa 0,0 l/m 6,7 km/h (2 Bft) W 270 5 min 0,000 mm 3,1 UV-I 749 W/m 5,9 C 12,6 C 14,5 km/h (3 Bft)
13.04.2014 11:25 12,8 C 64 % 1019,1 hPa 0,0 l/m 8,6 km/h (2 Bft) SW 219 5 min 0,000 mm 2,7 UV-I 666 W/m 6,2 C 11,4 C 16,1 km/h (3 Bft)
13.04.2014 11:30 12,7 C 62 % 1019,2 hPa 0,0 l/m 9,4 km/h (2 Bft) W 280 0 min 0,000 mm 1,4 UV-I 220 W/m 5,6 C 10,9 C 17,7 km/h (3 Bft)
13.04.2014 11:35 12,4 C 63 % 1019,3 hPa 0,0 l/m 8,3 km/h (2 Bft) W-NW 300 0 min 0,000 mm 2,0 UV-I 244 W/m 5,6 C 11,2 C 16,1 km/h (3 Bft)
13.04.2014 11:40 12,1 C 64 % 1019,2 hPa 0,0 l/m 11,5 km/h (2 Bft) W-NW 290 0 min 0,000 mm 3,3 UV-I 311 W/m 5,5 C 9,2 C 19,3 km/h (3 Bft)
13.04.2014 11:45 12,4 C 64 % 1019,1 hPa 0,0 l/m 9,2 km/h (2 Bft) NW 318 0 min 0,000 mm 2,2 UV-I 339 W/m 5,8 C 10,7 C 22,5 km/h (4 Bft)
13.04.2014 11:50 12,5 C 63 % 1019,1 hPa 0,0 l/m 7,6 km/h (2 Bft) NW 312 0 min 0,000 mm 1,1 UV-I 171 W/m 5,7 C 11,7 C 16,1 km/h (3 Bft)
13.04.2014 11:55 12,3 C 63 % 1019,2 hPa 0,0 l/m 8,5 km/h (2 Bft) W 268 0 min 0,000 mm 1,0 UV-I 142 W/m 5,5 C 11,0 C 19,3 km/h (3 Bft)
13.04.2014 12:00 12,2 C 64 % 1019,2 hPa 0,0 l/m 4,1 km/h (1 Bft) SW 236 0 min 0,000 mm 1,5 UV-I 204 W/m 5,6 C 12,2 C 9,7 km/h (2 Bft)
13.04.2014 12:05 12,3 C 65 % 1019,1 hPa 0,0 l/m 5,6 km/h (1 Bft) W-SW 246 5 min 0,254 mm 2,4 UV-I 432 W/m 5,9 C 12,3 C 16,1 km/h (3 Bft)
13.04.2014 12:10 12,6 C 64 % 1019,0 hPa 0,0 l/m 5,2 km/h (1 Bft) SW 232 0 min 0,000 mm 2,0 UV-I 318 W/m 6,0 C 12,6 C 12,9 km/h (3 Bft)
13.04.2014 12:15 13,1 C 62 % 1019,1 hPa 0,0 l/m 1,7 km/h (1 Bft) W-SW 242 0 min 0,000 mm 1,6 UV-I 239 W/m 6,0 C 13,1 C 8,0 km/h (2 Bft)
13.04.2014 12:20 12,9 C 61 % 1019,0 hPa 0,0 l/m 8,0 km/h (2 Bft) W-SW 249 0 min 0,000 mm 1,9 UV-I 316 W/m 5,6 C 11,9 C 19,3 km/h (3 Bft)
13.04.2014 12:25 12,8 C 62 % 1018,9 hPa 0,0 l/m 8,9 km/h (2 Bft) W-NW 296 0 min 0,000 mm 1,6 UV-I 225 W/m 5,7 C 11,3 C 17,7 km/h (3 Bft)
13.04.2014 12:30 12,8 C 62 % 1019,0 hPa 0,0 l/m 6,6 km/h (2 Bft) W 262 0 min 0,000 mm 1,5 UV-I 200 W/m 5,7 C 12,7 C 16,1 km/h (3 Bft)
13.04.2014 12:35 12,8 C 62 % 1018,9 hPa 0,0 l/m 6,7 km/h (2 Bft) SW 228 0 min 0,000 mm 2,1 UV-I 287 W/m 5,7 C 12,6 C 16,1 km/h (3 Bft)
13.04.2014 12:40 12,8 C 62 % 1018,9 hPa 0,0 l/m 5,3 km/h (1 Bft) W 259 0 min 0,000 mm 1,7 UV-I 250 W/m 5,7 C 12,8 C 11,3 km/h (2 Bft)
13.04.2014 12:45 12,8 C 62 % 1018,9 hPa 0,0 l/m 7,7 km/h (2 Bft) W-SW 248 0 min 0,000 mm 1,3 UV-I 179 W/m 5,7 C 12,0 C 14,5 km/h (3 Bft)
13.04.2014 12:50 12,7 C 62 % 1018,9 hPa 0,0 l/m 7,3 km/h (2 Bft) W-SW 240 0 min 0,000 mm 1,6 UV-I 214 W/m 5,6 C 12,1 C 17,7 km/h (3 Bft)
13.04.2014 12:55 12,7 C 63 % 1018,9 hPa 0,0 l/m 11,8 km/h (2 Bft) W 261 0 min 0,000 mm 2,0 UV-I 272 W/m 5,8 C 9,7 C 19,3 km/h (3 Bft)
13.04.2014 13:00 12,8 C 62 % 1018,9 hPa 0,0 l/m 6,9 km/h (2 Bft) NW 306 0 min 0,000 mm 1,9 UV-I 253 W/m 5,7 C 12,5 C 16,1 km/h (3 Bft)
13.04.2014 13:05 13,0 C 62 % 1018,8 hPa 0,0 l/m 7,4 km/h (2 Bft) W 275 0 min 0,153 mm 1,3 UV-I 163 W/m 5,9 C 12,4 C 17,7 km/h (3 Bft)
13.04.2014 13:10 12,8 C 62 % 1018,9 hPa 0,0 l/m 10,1 km/h (2 Bft) W 273 0 min 0,000 mm 1,8 UV-I 234 W/m 5,7 C 10,6 C 16,1 km/h (3 Bft)
13.04.2014 13:15 13,0 C 63 % 1018,9 hPa 0,0 l/m 7,4 km/h (2 Bft) W 259 0 min 0,000 mm 1,6 UV-I 221 W/m 6,1 C 12,4 C 12,9 km/h (3 Bft)
13.04.2014 13:20 12,8 C 63 % 1018,7 hPa 0,0 l/m 11,5 km/h (2 Bft) SW 222 0 min 0,000 mm 1,6 UV-I 220 W/m 5,9 C 10,0 C 19,3 km/h (3 Bft)
13.04.2014 13:25 12,7 C 61 % 1018,7 hPa 0,0 l/m 13,4 km/h (3 Bft) N-NW 331 0 min 0,000 mm 1,3 UV-I 172 W/m 5,4 C 9,0 C 25,7 km/h (4 Bft)
13.04.2014 13:30 12,7 C 63 % 1018,7 hPa 0,0 l/m 11,1 km/h (2 Bft) NW 310 0 min 0,000 mm 0,9 UV-I 113 W/m 5,8 C 10,0 C 19,3 km/h (3 Bft)
13.04.2014 13:35 12,7 C 64 % 1018,8 hPa 0,0 l/m 8,4 km/h (2 Bft) NW 313 0 min 0,000 mm 1,0 UV-I 127 W/m 6,1 C 11,5 C 20,9 km/h (4 Bft)
13.04.2014 13:40 12,7 C 62 % 1018,9 hPa 0,0 l/m 7,5 km/h (2 Bft) NW 304 0 min 0,000 mm 1,2 UV-I 174 W/m 5,6 C 12,0 C 19,3 km/h (3 Bft)
13.04.2014 13:45 12,6 C 63 % 1018,9 hPa 0,0 l/m 9,8 km/h (2 Bft) W-NW 291 0 min 0,000 mm 1,6 UV-I 223 W/m 5,7 C 10,6 C 22,5 km/h (4 Bft)
13.04.2014 13:50 12,7 C 64 % 1018,8 hPa 0,0 l/m 5,6 km/h (1 Bft) W-SW 257 0 min 0,000 mm 1,8 UV-I 253 W/m 6,1 C 12,7 C 16,1 km/h (3 Bft)
13.04.2014 13:55 12,8 C 64 % 1018,8 hPa 0,0 l/m 6,7 km/h (2 Bft) W-NW 284 0 min 0,000 mm 1,8 UV-I 260 W/m 6,2 C 12,6 C 12,9 km/h (3 Bft)
13.04.2014 14:00 12,7 C 62 % 1019,0 hPa 0,0 l/m 11,1 km/h (2 Bft) W-NW 288 0 min 0,000 mm 1,6 UV-I 232 W/m 5,6 C 10,0 C 24,1 km/h (4 Bft)
13.04.2014 14:05 12,6 C 63 % 1019,0 hPa 0,0 l/m 9,2 km/h (2 Bft) W 272 0 min 0,152 mm 1,6 UV-I 230 W/m 5,7 C 10,9 C 20,9 km/h (4 Bft)
13.04.2014 14:10 12,4 C 63 % 1019,1 hPa 0,0 l/m 13,4 km/h (3 Bft) NW 306 0 min 0,000 mm 1,9 UV-I 269 W/m 5,6 C 8,7 C 27,4 km/h (4 Bft)
13.04.2014 14:15 12,3 C 64 % 1019,1 hPa 0,0 l/m 12,7 km/h (3 Bft) NW 307 0 min 0,000 mm 2,1 UV-I 294 W/m 5,7 C 8,9 C 24,1 km/h (4 Bft)
13.04.2014 14:20 12,6 C 64 % 1019,0 hPa 0,0 l/m 8,1 km/h (2 Bft) N-NO 31 0 min 0,000 mm 2,0 UV-I 279 W/m 6,0 C 11,5 C 20,9 km/h (4 Bft)
13.04.2014 14:25 12,7 C 63 % 1019,1 hPa 0,0 l/m 5,4 km/h (1 Bft) W 281 0 min 0,000 mm 1,5 UV-I 206 W/m 5,8 C 12,7 C 20,9 km/h (4 Bft)
13.04.2014 14:30 12,8 C 63 % 1019,1 hPa 0,0 l/m 7,6 km/h (2 Bft) W-NW 294 0 min 0,000 mm 1,1 UV-I 148 W/m 5,9 C 12,0 C 17,7 km/h (3 Bft)
13.04.2014 14:35 12,6 C 64 % 1019,0 hPa 0,0 l/m 12,1 km/h (2 Bft) W-NW 302 0 min 0,000 mm 0,9 UV-I 121 W/m 6,0 C 9,5 C 22,5 km/h (4 Bft)
13.04.2014 14:40 12,4 C 65 % 1019,1 hPa 0,0 l/m 5,2 km/h (1 Bft) NW 308 0 min 0,000 mm 0,9 UV-I 121 W/m 6,0 C 12,4 C 12,9 km/h (3 Bft)
13.04.2014 14:45 12,4 C 65 % 1019,1 hPa 0,0 l/m 7,9 km/h (2 Bft) NW 304 0 min 0,000 mm 1,0 UV-I 137 W/m 6,0 C 11,4 C 17,7 km/h (3 Bft)
13.04.2014 14:50 12,3 C 64 % 1019,1 hPa 0,0 l/m 9,4 km/h (2 Bft) W-NW 298 0 min 0,000 mm 1,1 UV-I 160 W/m 5,7 C 10,5 C 19,3 km/h (3 Bft)
13.04.2014 14:55 12,3 C 64 % 1019,1 hPa 0,0 l/m 9,0 km/h (2 Bft) W 277 0 min 0,000 mm 1,3 UV-I 181 W/m 5,7 C 10,7 C 19,3 km/h (3 Bft)
13.04.2014 15:00 12,2 C 64 % 1019,1 hPa 0,0 l/m 9,0 km/h (2 Bft) W-NW 286 0 min 0,000 mm 1,4 UV-I 204 W/m 5,6 C 10,6 C 16,1 km/h (3 Bft)
13.04.2014 15:05 12,3 C 64 % 1019,0 hPa 0,0 l/m 5,6 km/h (1 Bft) W-NW 292 0 min 0,127 mm 1,4 UV-I 206 W/m 5,7 C 12,3 C 12,9 km/h (3 Bft)
13.04.2014 15:10 12,4 C 63 % 1019,0 hPa 0,0 l/m 8,5 km/h (2 Bft) W 281 0 min 0,000 mm 1,4 UV-I 211 W/m 5,6 C 11,1 C 22,5 km/h (4 Bft)
13.04.2014 15:15 12,4 C 63 % 1018,9 hPa 0,0 l/m 9,5 km/h (2 Bft) W-NW 282 0 min 0,000 mm 1,4 UV-I 223 W/m 5,6 C 10,5 C 19,3 km/h (3 Bft)
13.04.2014 15:20 12,4 C 63 % 1018,9 hPa 0,0 l/m 8,1 km/h (2 Bft) W-NW 300 0 min 0,000 mm 1,4 UV-I 244 W/m 5,6 C 11,3 C 16,1 km/h (3 Bft)
13.04.2014 15:25 12,7 C 63 % 1018,9 hPa 0,0 l/m 4,7 km/h (1 Bft) W-NW 298 0 min 0,000 mm 1,7 UV-I 285 W/m 5,8 C 12,7 C 11,3 km/h (2 Bft)
13.04.2014 15:30 12,8 C 62 % 1018,8 hPa 0,0 l/m 8,6 km/h (2 Bft) W 275 0 min 0,000 mm 1,9 UV-I 309 W/m 5,7 C 11,4 C 19,3 km/h (3 Bft)
13.04.2014 15:35 12,9 C 62 % 1018,8 hPa 0,0 l/m 6,8 km/h (2 Bft) W-NW 300 0 min 0,000 mm 1,8 UV-I 299 W/m 5,8 C 12,7 C 17,7 km/h (3 Bft)
13.04.2014 15:40 13,3 C 62 % 1018,7 hPa 0,0 l/m 5,2 km/h (1 Bft) W 259 0 min 0,000 mm 1,5 UV-I 260 W/m 6,2 C 13,3 C 14,5 km/h (3 Bft)
13.04.2014 15:45 13,2 C 60 % 1018,7 hPa 0,0 l/m 10,4 km/h (2 Bft) W-NW 302 0 min 0,000 mm 1,1 UV-I 183 W/m 5,6 C 10,9 C 19,3 km/h (3 Bft)
13.04.2014 15:50 13,0 C 60 % 1018,7 hPa 0,0 l/m 8,4 km/h (2 Bft) NO 46 0 min 0,000 mm 1,0 UV-I 163 W/m 5,4 C 11,8 C 19,3 km/h (3 Bft)
13.04.2014 15:55 12,9 C 60 % 1018,6 hPa 0,0 l/m 8,6 km/h (2 Bft) W-NW 297 0 min 0,000 mm 1,0 UV-I 158 W/m 5,3 C 11,5 C 16,1 km/h (3 Bft)
13.04.2014 16:00 12,8 C 61 % 1018,6 hPa 0,0 l/m 4,5 km/h (1 Bft) NW 304 0 min 0,000 mm 0,9 UV-I 153 W/m 5,5 C 12,8 C 12,9 km/h (3 Bft)
13.04.2014 16:05 12,8 C 61 % 1018,6 hPa 0,0 l/m 6,3 km/h (2 Bft) W-NW 284 0 min 0,152 mm 0,9 UV-I 144 W/m 5,5 C 12,8 C 14,5 km/h (3 Bft)
13.04.2014 16:10 12,8 C 60 % 1018,7 hPa 0,0 l/m 4,1 km/h (1 Bft) W-NW 296 0 min 0,000 mm 0,8 UV-I 130 W/m 5,2 C 12,8 C 14,5 km/h (3 Bft)
13.04.2014 16:15 12,7 C 60 % 1018,6 hPa 0,0 l/m 8,6 km/h (2 Bft) NW 304 0 min 0,000 mm 0,8 UV-I 128 W/m 5,1 C 11,3 C 17,7 km/h (3 Bft)
13.04.2014 16:20 12,6 C 60 % 1018,7 hPa 0,0 l/m 10,7 km/h (2 Bft) NW 307 0 min 0,000 mm 0,9 UV-I 151 W/m 5,0 C 10,1 C 22,5 km/h (4 Bft)
13.04.2014 16:25 12,5 C 61 % 1018,7 hPa 0,0 l/m 7,3 km/h (2 Bft) W-SW 250 0 min 0,000 mm 1,0 UV-I 183 W/m 5,2 C 11,9 C 20,9 km/h (4 Bft)
13.04.2014 16:30 12,4 C 61 % 1018,6 hPa 0,0 l/m 6,1 km/h (2 Bft) W-SW 249 0 min 0,000 mm 1,0 UV-I 193 W/m 5,1 C 12,4 C 11,3 km/h (2 Bft)
13.04.2014 16:35 12,6 C 61 % 1018,6 hPa 0,0 l/m 5,5 km/h (1 Bft) NW 304 0 min 0,000 mm 1,1 UV-I 211 W/m 5,3 C 12,6 C 14,5 km/h (3 Bft)
13.04.2014 16:40 12,6 C 61 % 1018,4 hPa 0,0 l/m 5,4 km/h (1 Bft) W-NW 289 0 min 0,000 mm 1,1 UV-I 230 W/m 5,3 C 12,6 C 11,3 km/h (2 Bft)
13.04.2014 16:45 12,8 C 61 % 1018,6 hPa 0,0 l/m 6,9 km/h (2 Bft) W-NW 300 0 min 0,000 mm 0,8 UV-I 156 W/m 5,5 C 12,5 C 14,5 km/h (3 Bft)
13.04.2014 16:50 12,8 C 61 % 1018,3 hPa 0,0 l/m 7,0 km/h (2 Bft) SW 221 0 min 0,000 mm 0,6 UV-I 123 W/m 5,5 C 12,4 C 16,1 km/h (3 Bft)
13.04.2014 16:55 12,7 C 61 % 1018,4 hPa 0,0 l/m 7,9 km/h (2 Bft) W-NW 303 0 min 0,000 mm 0,6 UV-I 118 W/m 5,4 C 11,7 C 14,5 km/h (3 Bft)
13.04.2014 17:00 12,7 C 61 % 1018,3 hPa 0,0 l/m 5,7 km/h (1 Bft) W-SW 252 0 min 0,000 mm 0,6 UV-I 116 W/m 5,4 C 12,7 C 12,9 km/h (3 Bft)
13.04.2014 17:05 12,7 C 62 % 1018,3 hPa 0,0 l/m 6,1 km/h (2 Bft) NW 309 0 min 0,102 mm 0,7 UV-I 142 W/m 5,6 C 12,7 C 12,9 km/h (3 Bft)
13.04.2014 17:10 12,7 C 61 % 1018,3 hPa 0,0 l/m 8,7 km/h (2 Bft) NW 309 0 min 0,000 mm 0,8 UV-I 174 W/m 5,4 C 11,3 C 16,1 km/h (3 Bft)
13.04.2014 17:15 12,7 C 61 % 1018,3 hPa 0,0 l/m 5,4 km/h (1 Bft) NW 315 0 min 0,000 mm 0,8 UV-I 176 W/m 5,4 C 12,7 C 12,9 km/h (3 Bft)
13.04.2014 17:20 12,8 C 61 % 1018,2 hPa 0,0 l/m 7,2 km/h (2 Bft) W 275 0 min 0,000 mm 0,7 UV-I 160 W/m 5,5 C 12,3 C 14,5 km/h (3 Bft)
13.04.2014 17:25 12,8 C 61 % 1018,3 hPa 0,0 l/m 10,0 km/h (2 Bft) W 275 0 min 0,000 mm 0,7 UV-I 149 W/m 5,5 C 10,7 C 19,3 km/h (3 Bft)
13.04.2014 17:30 12,7 C 61 % 1018,2 hPa 0,0 l/m 7,5 km/h (2 Bft) W-NW 296 0 min 0,000 mm 0,6 UV-I 116 W/m 5,4 C 12,0 C 17,7 km/h (3 Bft)
13.04.2014 17:35 12,7 C 61 % 1018,2 hPa 0,0 l/m 7,9 km/h (2 Bft) W-NW 299 0 min 0,000 mm 0,0 UV-I 86 W/m 5,4 C 11,7 C 20,9 km/h (4 Bft)
13.04.2014 17:40 12,7 C 61 % 1018,2 hPa 0,0 l/m 7,4 km/h (2 Bft) W-NW 285 0 min 0,000 mm 0,0 UV-I 83 W/m 5,4 C 12,1 C 19,3 km/h (3 Bft)
13.04.2014 17:45 12,6 C 61 % 1018,3 hPa 0,0 l/m 7,8 km/h (2 Bft) W 273 0 min 0,000 mm 0,0 UV-I 90 W/m 5,3 C 11,7 C 22,5 km/h (4 Bft)
13.04.2014 17:50 12,6 C 61 % 1018,2 hPa 0,0 l/m 9,4 km/h (2 Bft) W-SW 254 0 min 0,000 mm 0,5 UV-I 104 W/m 5,3 C 10,8 C 20,9 km/h (4 Bft)
13.04.2014 17:55 12,6 C 61 % 1018,2 hPa 0,0 l/m 7,4 km/h (2 Bft) W 268 0 min 0,000 mm 0,5 UV-I 111 W/m 5,3 C 12,0 C 14,5 km/h (3 Bft)
13.04.2014 18:00 12,6 C 62 % 1018,3 hPa 0,0 l/m 7,9 km/h (2 Bft) NW 306 0 min 0,000 mm 0,5 UV-I 132 W/m 5,5 C 11,6 C 17,7 km/h (3 Bft)
13.04.2014 18:05 12,5 C 60 % 1018,2 hPa 0,0 l/m 9,4 km/h (2 Bft) NW 325 0 min 0,102 mm 0,6 UV-I 165 W/m 5,0 C 10,7 C 20,9 km/h (4 Bft)
13.04.2014 18:10 12,5 C 60 % 1018,3 hPa 0,0 l/m 10,0 km/h (2 Bft) W-NW 299 0 min 0,000 mm 0,5 UV-I 134 W/m 5,0 C 10,4 C 20,9 km/h (4 Bft)
13.04.2014 18:15 12,5 C 61 % 1018,2 hPa 0,0 l/m 5,6 km/h (1 Bft) NW 305 0 min 0,000 mm 0,0 UV-I 97 W/m 5,2 C 12,5 C 14,5 km/h (3 Bft)
13.04.2014 18:20 12,4 C 61 % 1018,2 hPa 0,0 l/m 6,0 km/h (2 Bft) NW 306 0 min 0,000 mm 0,0 UV-I 72 W/m 5,1 C 12,4 C 12,9 km/h (3 Bft)
13.04.2014 18:25 12,4 C 62 % 1018,2 hPa 0,0 l/m 4,8 km/h (1 Bft) W-NW 299 0 min 0,000 mm 0,0 UV-I 63 W/m 5,3 C 12,4 C 9,7 km/h (2 Bft)
13.04.2014 18:30 12,4 C 62 % 1018,1 hPa 0,0 l/m 3,4 km/h (1 Bft) W 263 0 min 0,000 mm 0,0 UV-I 137 W/m 5,3 C 12,4 C 11,3 km/h (2 Bft)
13.04.2014 18:35 12,4 C 63 % 1018,1 hPa 0,0 l/m 5,8 km/h (2 Bft) W-SW 255 0 min 0,000 mm 0,0 UV-I 128 W/m 5,6 C 12,4 C 12,9 km/h (3 Bft)
13.04.2014 18:40 12,4 C 63 % 1018,0 hPa 0,0 l/m 7,1 km/h (2 Bft) W 277 0 min 0,000 mm 0,0 UV-I 102 W/m 5,6 C 11,9 C 12,9 km/h (3 Bft)
13.04.2014 18:45 12,5 C 63 % 1018,0 hPa 0,0 l/m 5,6 km/h (1 Bft) W-SW 254 5 min 0,000 mm 0,0 UV-I 188 W/m 5,7 C 12,5 C 12,9 km/h (3 Bft)
13.04.2014 18:50 12,6 C 63 % 1017,8 hPa 0,0 l/m 6,0 km/h (2 Bft) SW 227 5 min 0,000 mm 0,0 UV-I 128 W/m 5,7 C 12,6 C 12,9 km/h (3 Bft)
13.04.2014 18:55 12,5 C 63 % 1017,8 hPa 0,0 l/m 10,0 km/h (2 Bft) W-SW 258 0 min 0,000 mm 0,0 UV-I 65 W/m 5,7 C 10,4 C 17,7 km/h (3 Bft)
13.04.2014 19:00 12,3 C 64 % 1017,9 hPa 0,0 l/m 6,7 km/h (2 Bft) W-SW 251 0 min 0,000 mm 0,0 UV-I 49 W/m 5,7 C 12,1 C 14,5 km/h (3 Bft)
13.04.2014 19:05 12,2 C 64 % 1017,9 hPa 0,0 l/m 9,7 km/h (2 Bft) W-NW 294 0 min 0,076 mm 0,0 UV-I 42 W/m 5,6 C 10,2 C 16,1 km/h (3 Bft)
13.04.2014 19:10 12,1 C 64 % 1017,9 hPa 0,0 l/m 6,7 km/h (2 Bft) W-NW 297 0 min 0,000 mm 0,0 UV-I 37 W/m 5,5 C 11,9 C 12,9 km/h (3 Bft)
13.04.2014 19:15 11,9 C 65 % 1017,9 hPa 0,0 l/m 7,2 km/h (2 Bft) W 269 0 min 0,000 mm 0,0 UV-I 32 W/m 5,5 C 11,4 C 12,9 km/h (3 Bft)
13.04.2014 19:20 11,8 C 65 % 1017,9 hPa 0,0 l/m 8,6 km/h (2 Bft) W 280 0 min 0,000 mm 0,0 UV-I 26 W/m 5,4 C 10,4 C 17,7 km/h (3 Bft)
13.04.2014 19:25 11,8 C 65 % 1017,9 hPa 0,0 l/m 5,3 km/h (1 Bft) W-SW 250 0 min 0,000 mm 0,0 UV-I 39 W/m 5,4 C 11,8 C 12,9 km/h (3 Bft)
13.04.2014 19:30 11,7 C 65 % 1017,8 hPa 0,0 l/m 7,3 km/h (2 Bft) W 273 0 min 0,000 mm 0,0 UV-I 37 W/m 5,3 C 11,1 C 16,1 km/h (3 Bft)
13.04.2014 19:35 11,7 C 66 % 1017,8 hPa 0,0 l/m 4,3 km/h (1 Bft) W 262 0 min 0,000 mm 0,0 UV-I 39 W/m 5,6 C 11,7 C 11,3 km/h (2 Bft)
13.04.2014 19:40 11,7 C 66 % 1017,9 hPa 0,0 l/m 6,3 km/h (2 Bft) W-NW 297 0 min 0,000 mm 0,0 UV-I 35 W/m 5,6 C 11,7 C 12,9 km/h (3 Bft)
13.04.2014 19:45 11,7 C 66 % 1017,8 hPa 0,0 l/m 4,9 km/h (1 Bft) W 266 0 min 0,000 mm 0,0 UV-I 26 W/m 5,6 C 11,7 C 11,3 km/h (2 Bft)
13.04.2014 19:50 11,6 C 66 % 1017,7 hPa 0,0 l/m 4,4 km/h (1 Bft) W-NW 289 0 min 0,000 mm 0,0 UV-I 12 W/m 5,5 C 11,6 C 9,7 km/h (2 Bft)
13.04.2014 19:55 11,5 C 66 % 1017,8 hPa 0,0 l/m 4,4 km/h (1 Bft) W-NW 283 0 min 0,000 mm 0,0 UV-I 11 W/m 5,4 C 11,5 C 9,7 km/h (2 Bft)
13.04.2014 20:00 11,5 C 66 % 1017,7 hPa 0,0 l/m 4,1 km/h (1 Bft) W 275 0 min 0,000 mm 0,0 UV-I 7 W/m 5,4 C 11,5 C 8,0 km/h (2 Bft)
13.04.2014 20:05 11,4 C 67 % 1017,6 hPa 0,0 l/m 4,5 km/h (1 Bft) W 272 0 min 0,051 mm 0,0 UV-I 5 W/m 5,5 C 11,4 C 11,3 km/h (2 Bft)
13.04.2014 20:10 11,4 C 67 % 1017,6 hPa 0,0 l/m 4,0 km/h (1 Bft) W 261 0 min 0,000 mm 0,0 UV-I 0 W/m 5,5 C 11,4 C 11,3 km/h (2 Bft)
13.04.2014 20:15 11,4 C 67 % 1017,7 hPa 0,0 l/m 3,2 km/h (1 Bft) W-NW 300 0 min 0,000 mm 0,0 UV-I 0 W/m 5,5 C 11,4 C 6,4 km/h (2 Bft)
13.04.2014 20:20 11,3 C 67 % 1017,6 hPa 0,0 l/m 6,0 km/h (2 Bft) W-NW 287 0 min 0,000 mm 0,0 UV-I 0 W/m 5,4 C 11,3 C 11,3 km/h (2 Bft)
13.04.2014 20:25 11,3 C 68 % 1017,6 hPa 0,0 l/m 6,5 km/h (2 Bft) W-NW 282 0 min 0,000 mm 0,0 UV-I 0 W/m 5,6 C 11,3 C 12,9 km/h (3 Bft)
13.04.2014 20:30 11,2 C 68 % 1017,7 hPa 0,0 l/m 5,7 km/h (1 Bft) W 261 0 min 0,000 mm 0,0 UV-I 0 W/m 5,5 C 11,2 C 11,3 km/h (2 Bft)
13.04.2014 20:35 11,1 C 69 % 1017,7 hPa 0,0 l/m 6,3 km/h (2 Bft) W 266 0 min 0,000 mm 0,0 UV-I 0 W/m 5,6 C 11,1 C 11,3 km/h (2 Bft)
13.04.2014 20:40 10,9 C 69 % 1017,8 hPa 0,0 l/m 5,0 km/h (1 Bft) W 270 0 min 0,000 mm 0,0 UV-I 0 W/m 5,4 C 10,9 C 8,0 km/h (2 Bft)
13.04.2014 20:45 10,8 C 70 % 1017,8 hPa 0,0 l/m 4,5 km/h (1 Bft) W-NW 286 0 min 0,000 mm 0,0 UV-I 0 W/m 5,6 C 10,8 C 12,9 km/h (3 Bft)
13.04.2014 20:50 10,7 C 70 % 1017,8 hPa 0,0 l/m 5,2 km/h (1 Bft) W 273 0 min 0,000 mm 0,0 UV-I 0 W/m 5,5 C 10,7 C 11,3 km/h (2 Bft)
13.04.2014 20:55 10,7 C 70 % 1017,9 hPa 0,0 l/m 3,7 km/h (1 Bft) W-NW 282 0 min 0,000 mm 0,0 UV-I 0 W/m 5,5 C 10,7 C 9,7 km/h (2 Bft)
13.04.2014 21:00 10,6 C 71 % 1017,8 hPa 0,0 l/m 4,6 km/h (1 Bft) W 271 0 min 0,000 mm 0,0 UV-I 0 W/m 5,6 C 10,6 C 9,7 km/h (2 Bft)
13.04.2014 21:05 10,4 C 71 % 1017,8 hPa 0,0 l/m 4,2 km/h (1 Bft) W 270 0 min 0,025 mm 0,0 UV-I 0 W/m 5,4 C 10,4 C 8,0 km/h (2 Bft)
13.04.2014 21:10 10,3 C 71 % 1017,7 hPa 0,0 l/m 2,4 km/h (1 Bft) W 275 0 min 0,000 mm 0,0 UV-I 0 W/m 5,3 C 10,3 C 6,4 km/h (2 Bft)
13.04.2014 21:15 10,2 C 72 % 1017,8 hPa 0,0 l/m 4,6 km/h (1 Bft) W 263 0 min 0,000 mm 0,0 UV-I 0 W/m 5,4 C 10,2 C 9,7 km/h (2 Bft)
13.04.2014 21:20 10,1 C 72 % 1017,8 hPa 0,0 l/m 4,3 km/h (1 Bft) W 279 0 min 0,000 mm 0,0 UV-I 0 W/m 5,3 C 10,1 C 9,7 km/h (2 Bft)
13.04.2014 21:25 10,0 C 72 % 1017,7 hPa 0,0 l/m 4,7 km/h (1 Bft) W 273 0 min 0,000 mm 0,0 UV-I 0 W/m 5,2 C 10,0 C 11,3 km/h (2 Bft)
13.04.2014 21:30 9,9 C 73 % 1017,7 hPa 0,0 l/m 3,7 km/h (1 Bft) W-NW 300 0 min 0,000 mm 0,0 UV-I 0 W/m 5,3 C 9,9 C 8,0 km/h (2 Bft)
13.04.2014 21:35 9,9 C 73 % 1017,7 hPa 0,0 l/m 3,4 km/h (1 Bft) NW 309 0 min 0,000 mm 0,0 UV-I 0 W/m 5,3 C 9,9 C 8,0 km/h (2 Bft)
13.04.2014 21:40 9,8 C 73 % 1017,8 hPa 0,0 l/m 3,4 km/h (1 Bft) W-NW 297 0 min 0,000 mm 0,0 UV-I 0 W/m 5,2 C 9,8 C 8,0 km/h (2 Bft)
13.04.2014 21:45 9,8 C 73 % 1017,7 hPa 0,0 l/m 2,8 km/h (1 Bft) W-NW 283 0 min 0,000 mm 0,0 UV-I 0 W/m 5,2 C 9,8 C 6,4 km/h (2 Bft)
13.04.2014 21:50 9,7 C 73 % 1017,8 hPa 0,0 l/m 3,8 km/h (1 Bft) W-NW 282 0 min 0,000 mm 0,0 UV-I 0 W/m 5,1 C 9,7 C 8,0 km/h (2 Bft)
13.04.2014 21:55 9,7 C 73 % 1017,9 hPa 0,0 l/m 5,2 km/h (1 Bft) W-NW 288 0 min 0,000 mm 0,0 UV-I 0 W/m 5,1 C 9,7 C 9,7 km/h (2 Bft)
13.04.2014 22:00 9,7 C 73 % 1017,8 hPa 0,0 l/m 3,0 km/h (1 Bft) W-NW 289 0 min 0,000 mm 0,0 UV-I 0 W/m 5,1 C 9,7 C 8,0 km/h (2 Bft)
13.04.2014 22:05 9,6 C 73 % 1017,7 hPa 0,0 l/m 2,2 km/h (1 Bft) W 279 0 min 0,025 mm 0,0 UV-I 0 W/m 5,0 C 9,6 C 6,4 km/h (2 Bft)
13.04.2014 22:10 9,4 C 74 % 1017,5 hPa 0,0 l/m 0,7 km/h (0 Bft) W-SW 237 0 min 0,000 mm 0,0 UV-I 0 W/m 5,0 C 9,4 C 3,2 km/h (1 Bft)
13.04.2014 22:15 9,0 C 75 % 1017,4 hPa 0,0 l/m 0,2 km/h (0 Bft) W-SW 240 0 min 0,000 mm 0,0 UV-I 0 W/m 4,8 C 9,0 C 3,2 km/h (1 Bft)
13.04.2014 22:20 8,7 C 76 % 1017,3 hPa 0,0 l/m 1,4 km/h (1 Bft) W-NW 288 0 min 0,000 mm 0,0 UV-I 0 W/m 4,7 C 8,7 C 4,8 km/h (1 Bft)
13.04.2014 22:25 8,7 C 77 % 1017,2 hPa 0,0 l/m 2,0 km/h (1 Bft) W-NW 295 0 min 0,000 mm 0,0 UV-I 0 W/m 4,9 C 8,7 C 4,8 km/h (1 Bft)
13.04.2014 22:30 8,7 C 77 % 1017,2 hPa 0,0 l/m 3,6 km/h (1 Bft) W-NW 290 0 min 0,000 mm 0,0 UV-I 0 W/m 4,9 C 8,7 C 9,7 km/h (2 Bft)
13.04.2014 22:35 8,7 C 76 % 1017,3 hPa 0,0 l/m 1,8 km/h (1 Bft) W-NW 293 0 min 0,000 mm 0,0 UV-I 0 W/m 4,7 C 8,7 C 4,8 km/h (1 Bft)
13.04.2014 22:40 8,6 C 76 % 1017,3 hPa 0,0 l/m 2,4 km/h (1 Bft) W-NW 289 0 min 0,000 mm 0,0 UV-I 0 W/m 4,6 C 8,6 C 6,4 km/h (2 Bft)
13.04.2014 22:45 8,5 C 76 % 1017,2 hPa 0,0 l/m 3,9 km/h (1 Bft) W-NW 294 0 min 0,000 mm 0,0 UV-I 0 W/m 4,5 C 8,5 C 8,0 km/h (2 Bft)
13.04.2014 22:50 8,5 C 76 % 1017,1 hPa 0,0 l/m 2,9 km/h (1 Bft) W 267 0 min 0,000 mm 0,0 UV-I 0 W/m 4,5 C 8,5 C 8,0 km/h (2 Bft)
13.04.2014 22:55 8,4 C 76 % 1017,2 hPa 0,0 l/m 3,0 km/h (1 Bft) W-NW 284 0 min 0,000 mm 0,0 UV-I 0 W/m 4,4 C 8,4 C 9,7 km/h (2 Bft)
13.04.2014 23:00 8,3 C 77 % 1017,1 hPa 0,0 l/m 2,5 km/h (1 Bft) W-NW 283 0 min 0,000 mm 0,0 UV-I 0 W/m 4,5 C 8,3 C 6,4 km/h (2 Bft)
13.04.2014 23:05 8,3 C 76 % 1017,0 hPa 0,0 l/m 3,2 km/h (1 Bft) W 279 0 min 0,026 mm 0,0 UV-I 0 W/m 4,3 C 8,3 C 6,4 km/h (2 Bft)
13.04.2014 23:10 8,2 C 76 % 1016,9 hPa 0,0 l/m 2,4 km/h (1 Bft) NW 306 0 min 0,000 mm 0,0 UV-I 0 W/m 4,2 C 8,2 C 8,0 km/h (2 Bft)
13.04.2014 23:15 8,2 C 76 % 1017,0 hPa 0,0 l/m 3,5 km/h (1 Bft) W-NW 292 0 min 0,000 mm 0,0 UV-I 0 W/m 4,2 C 8,2 C 8,0 km/h (2 Bft)
13.04.2014 23:20 8,1 C 76 % 1017,0 hPa 0,0 l/m 4,2 km/h (1 Bft) W-NW 291 0 min 0,000 mm 0,0 UV-I 0 W/m 4,1 C 8,1 C 11,3 km/h (2 Bft)
13.04.2014 23:25 8,1 C 75 % 1017,1 hPa 0,0 l/m 2,8 km/h (1 Bft) W-SW 257 0 min 0,000 mm 0,0 UV-I 0 W/m 3,9 C 8,1 C 11,3 km/h (2 Bft)
13.04.2014 23:30 8,1 C 75 % 1017,0 hPa 0,0 l/m 3,3 km/h (1 Bft) W-SW 243 0 min 0,000 mm 0,0 UV-I 0 W/m 3,9 C 8,1 C 8,0 km/h (2 Bft)
13.04.2014 23:35 7,8 C 76 % 1017,0 hPa 0,0 l/m 1,5 km/h (1 Bft) W-SW 245 0 min 0,000 mm 0,0 UV-I 0 W/m 3,8 C 7,8 C 4,8 km/h (1 Bft)
13.04.2014 23:40 7,3 C 78 % 1016,9 hPa 0,0 l/m 0,9 km/h (0 Bft) W 263 0 min 0,000 mm 0,0 UV-I 0 W/m 3,7 C 7,3 C 4,8 km/h (1 Bft)
13.04.2014 23:45 6,9 C 80 % 1017,0 hPa 0,0 l/m 1,6 km/h (1 Bft) W 273 0 min 0,000 mm 0,0 UV-I 0 W/m 3,7 C 6,9 C 3,2 km/h (1 Bft)
13.04.2014 23:50 6,8 C 80 % 1016,7 hPa 0,0 l/m 2,0 km/h (1 Bft) W 260 0 min 0,000 mm 0,0 UV-I 0 W/m 3,6 C 6,8 C 4,8 km/h (1 Bft)
13.04.2014 23:55 6,6 C 80 % 1016,7 hPa 0,0 l/m 1,6 km/h (1 Bft) W 266 0 min 0,000 mm 0,0 UV-I 0 W/m 3,4 C 6,6 C 4,8 km/h (1 Bft)
_ Min-Zeit 07:10 00:10 01:45 - 00:30 - - - - - - 07:00 07:10 00:40
Minimum _ 3,2 C 56 % 1016,4 hPa - 0,0 km/h (0 Bft) - - - - - - 1,0 C 3,2 C 0,0 km/h (0 Bft)
_ Max-Zeit 15:40 07:25 11:35 00:00 13:25 - - 07:50 12:05 11:40 11:20 10:45 15:40 14:10
Maximum _ 13,3 C 88 % 1019,3 hPa 0,0 l/m 13,4 km/h
N-NW (3 Bft)
- - 5 min 0,254 mm 3,3 UV-I 749 W/m 6,2 C 13,3 C 27,4 km/h
W-NW (4 Bft)
Durchschnitt _ 9,8 C 70 % 1017,8 hPa #0,0 l/m 4,1 km/h (1 Bft) W-NW - #2:35 h #1,829 mm 1,3 UV-I 192 W/m 4,5 C 9,4 C 9,2 km/h (2 Bft)